Zurück zum Katalog

FENGYUN 1C DEB

LostPO
NORAD 46441·DEBRIS·🇨🇳 China

Gestartet May 10, 1999 von Taiyuan Satellite Launch Center

Loading…

Nächste Überflüge (nächste 24 Stunden)

TLE

VeraltetSource: Space-Track

Epoche: Jun 13, 2026, 12:06 UTC

1 46441U 99025EYW 26164.50421421  .00009333  00000-0  54206-2 0  9999
2 46441  95.2572  90.6006 0305878 291.1372  65.7358 13.87895503311972

Verfolge FENGYUN 1C DEB in Echtzeit mit AllMySat

Download on the App Store